TimeCDT,TemperatureF,Dew PointF,Humidity,Sea Level PressureIn,VisibilityMPH,Wind Direction,Wind SpeedMPH,Gust SpeedMPH,PrecipitationIn,Events,Conditions,WindDirDegrees,DateUTC
12:58 AM,63.9,63.9,100,30.14,10.0,South,2.3,-,N/A,,Clear,170,2013-09-05 05:58:00
1:58 AM,62.8,62.8,100,30.14,10.0,SW,2.3,-,N/A,,Clear,220,2013-09-05 06:58:00
2:58 AM,60.8,60.8,100,30.14,10.0,Calm,Calm,-,N/A,,Clear,0,2013-09-05 07:58:00
3:58 AM,59.7,59.7,100,30.14,10.0,SE,2.3,-,N/A,,Clear,140,2013-09-05 08:58:00
4:58 AM,59.4,59.4,100,30.14,10.0,ENE,3.5,-,N/A,,Clear,70,2013-09-05 09:58:00
5:58 AM,59.4,59.4,100,30.15,10.0,Calm,Calm,-,N/A,,Partly Cloudy,0,2013-09-05 10:58:00
6:58 AM,59.2,59.2,100,30.17,10.0,Calm,Calm,-,N/A,,Partly Cloudy,0,2013-09-05 11:58:00
7:58 AM,62.1,62.1,100,30.19,10.0,ESE,3.5,-,N/A,,Partly Cloudy,120,2013-09-05 12:58:00
8:58 AM,69.6,68.5,96,30.20,10.0,ENE,1.2,-,N/A,,Partly Cloudy,70,2013-09-05 13:58:00
9:58 AM,75.4,67.8,77,30.22,10.0,NE,1.2,-,N/A,,Mostly Cloudy,50,2013-09-05 14:58:00
10:58 AM,80.6,63.7,56,30.21,10.0,East,3.5,-,N/A,,Mostly Cloudy,90,2013-09-05 15:58:00
11:58 AM,83.1,61.2,47,30.21,10.0,East,4.6,-,N/A,,Scattered Clouds,80,2013-09-05 16:58:00
12:58 PM,83.8,63.5,50,30.19,10.0,East,4.6,-,N/A,,Scattered Clouds,80,2013-09-05 17:58:00
1:58 PM,85.8,61.3,44,30.16,10.0,NNE,1.2,-,N/A,,Mostly Cloudy,30,2013-09-05 18:58:00
2:58 PM,86.0,64.0,48,30.15,10.0,ENE,3.5,-,N/A,,Mostly Cloudy,60,2013-09-05 19:58:00
3:58 PM,86.2,63.3,46,30.14,10.0,ESE,6.9,-,N/A,,Scattered Clouds,120,2013-09-05 20:58:00
6:58 PM,83.3,70.5,65,30.12,10.0,Calm,Calm,-,N/A,,Scattered Clouds,0,2013-09-05 23:58:00
8:56 PM,73.4,66.2,78,30.14,10.0,SSE,4.6,-,N/A,,Partly Cloudy,160,2013-09-06 01:56:00
8:58 PM,73.8,66.4,78,30.13,10.0,SSE,3.5,-,N/A,,Scattered Clouds,160,2013-09-06 01:58:00
9:58 PM,70.9,68.4,92,30.13,10.0,ESE,1.2,-,N/A,,Scattered Clouds,110,2013-09-06 02:58:00
10:58 PM,68.7,66.6,93,30.14,10.0,SE,3.5,-,N/A,,Partly Cloudy,140,2013-09-06 03:58:00
11:58 PM,68.2,64.9,89,30.14,10.0,South,3.5,-,N/A,,Clear,170,2013-09-06 04:58:00